User: anonymous   Login
Location: Fort Wayne
(41.1310°N, 85.1290°W)
Time: 20:26:00
(UTC-04:00)
Language:

Helios 1B - Orbit

View from above orbital plane
View from above orbital plane
View from above satellite
View from above satellite

Ground track
Ground track

The orbit data is extracted from the following two-line orbital elements,

1 25977U 99064A   16127.21137571  .00000448  00000-0  63331-4 0  9998
2 25977  98.1330 225.8032 0002216 126.9153 233.2263 14.82020776883722
Epoch (UTC): 06 May 2016 05:04:22
Eccentricity: 0.0002216
inclination: 98.1330°
perigee height: 621 km
apogee height: 624 km
right ascension of ascending node: 225.8032°
argument of perigee: 126.9153°
revolutions per day: 14.82020776
mean anomaly at epoch: 233.2263°
orbit number at epoch: 88372

The dashed part of the orbit path shows where the satellite is in the earth's shadow,  

DLR